W5MAI Weather Reports


Display with metric or nautical units.
time (UTC)temp
F
wind
direction
speed
MPH
gust
MPH
rain 1hr
in
rain 24hr
in
rain mn
in
humidity
%
barometer
mb
20260510071417 72 216 2.0 4.0 0.00 0.00 0.00 83 1012.9
20260510070333 72 217 1.0 5.0 0.00 0.00 0.00 83 1013.0
20260510065326 72 181 1.0 4.0 0.00 0.00 0.00 83 1012.9
20260510064338 72 191 1.0 3.0 0.00 0.00 0.00 83 1013.0
20260510063342 72 198 1.0 2.0 0.00 0.00 0.00 83 1012.9
20260510062326 73 198 1.0 3.0 0.00 0.00 0.00 82 1012.9
20260510061337 73 198 1.0 4.0 0.00 0.00 0.00 82 1013.1
20260510060323 73 194 0.0 4.0 0.00 0.00 0.00 81 1013.1
20260510055327 74 197 2.0 4.0 0.00 0.00 0.00 81 1013.0
20260510054341 73 177 1.0 5.0 0.00 0.00 0.00 83 1013.0
20260510053324 71 173 3.0 5.0 0.00 0.00 0.00 87 1012.9
20260510052335 69 167 0.0 2.0 0.00 0.00 0.00 88 1012.9
20260510051340 69 140 0.0 0.0 0.00 0.00 0.00 86 1012.8
20260510050327 69 140 0.0 0.0 0.00 0.00 0.00 86 1012.9
20260510045347 70 140 0.0 0.0 0.00 0.00 0.00 85 1012.9
20260510044354 70 140 0.0 0.0 0.00 0.00 0.00 85 1012.8
20260510043429 71 140 0.0 0.0 0.00 0.00 0.00 84 1012.8
20260510042356 71 140 0.0 0.0 0.00 0.00 0.00 82 1012.7
20260510041414 72 140 0.0 0.0 0.00 0.00 0.00 81 1012.6
20260510040324 72 140 0.0 0.0 0.00 0.00 0.00 81 1012.6
20260510035341 73 140 0.0 0.0 0.00 0.00 0.00 80 1012.4
20260510034412 74 140 0.0 0.0 0.00 0.00 0.00 78 1012.4
20260510033329 75 140 0.0 0.0 0.00 0.00 0.00 77 1012.2
20260510032348 76 140 0.0 0.0 0.00 0.00 0.00 75 1012.1
20260510031410 77 140 0.0 0.0 0.00 0.00 0.00 74 1012.1
20260510024402 79 140 0.0 3.0 0.00 0.00 0.00 71 1011.7
20260510023421 79 136 0.0 2.0 0.00 0.00 0.00 71 1011.7
20260510022341 79 157 2.0 6.0 0.00 0.00 0.00 70 1011.6
20260510021418 79 130 3.0 5.0 0.00 0.00 0.00 70 1011.6
20260510020336 79 113 1.0 4.0 0.00 0.00 0.00 68 1011.4
20260510015421 80 100 1.0 4.0 0.00 0.00 0.00 65 1011.3
20260510014351 80 153 1.0 4.0 0.00 0.00 0.00 62 1011.1
20260510013412 81 121 1.0 4.0 0.00 0.00 0.00 62 1010.9
20260510011336 82 136 1.0 3.0 0.00 0.00 0.00 62 1010.7
20260510010410 83 142 2.0 6.0 0.00 0.00 0.00 61 1010.5
20260510005331 84 83 2.0 7.0 0.00 0.00 0.00 61 1010.3
20260510004352 84 120 2.0 7.0 0.00 0.00 0.00 59 1010.2
20260510003422 85 140 3.0 8.0 0.00 0.00 0.00 56 1010.2
20260510002334 86 145 4.0 8.0 0.00 0.00 0.00 56 1010.0
20260510001409 86 136 3.0 6.0 0.00 0.00 0.00 57 1010.0
20260510000344 86 155 1.0 5.0 0.00 0.00 0.00 58 1009.9
20260509235349 86 127 3.0 7.0 0.00 0.00 0.00 58 1009.8
20260509234356 85 135 4.0 8.0 0.00 0.00 0.00 58 1009.8
20260509233327 85 62 5.0 11.0 0.00 0.00 0.00 57 1009.8
20260509232336 85 131 6.0 10.0 0.00 0.00 0.00 59 1009.8
20260509231350 86 122 4.0 13.0 0.00 0.00 0.00 60 1009.8
20260509230420 88 146 6.0 9.0 0.00 0.00 0.00 56 1009.7
20260509225330 88 98 4.0 9.0 0.00 0.00 0.00 55 1009.6
20260509224359 89 185 4.0 16.0 0.00 0.00 0.00 55 1009.7
20260509223408 90 139 2.0 5.0 0.00 0.00 0.00 51 1009.7
20260509222415 90 189 3.0 7.0 0.00 0.00 0.00 53 1009.6
20260509221338 90 195 2.0 8.0 0.00 0.00 0.00 51 1009.7
20260509215358 90 233 1.0 4.0 0.00 0.00 0.00 53 1009.7
20260509214421 90 150 3.0 6.0 0.00 0.00 0.00 54 1009.8
20260509212334 89 196 2.0 5.0 0.00 0.00 0.00 52 1009.9
20260509211410 90 188 3.0 5.0 0.00 0.00 0.00 52 1009.9
20260509210327 89 117 2.0 3.0 0.00 0.00 0.00 53 1010.1
20260509205400 88 257 0.0 1.0 0.00 0.00 0.00 52 1010.3
20260509204334 88 257 0.0 5.0 0.00 0.00 0.00 53 1010.5
20260509203402 88 112 2.0 4.0 0.00 0.00 0.00 54 1010.5
20260509202421 89 164 0.0 3.0 0.00 0.00 0.00 54 1010.7
20260509201338 89 243 3.0 7.0 0.00 0.00 0.00 53 1010.8
20260509200413 90 266 1.0 5.0 0.00 0.00 0.00 54 1010.8
20260509195342 89 260 2.0 8.0 0.00 0.00 0.00 52 1010.9
20260509194401 89 280 1.0 4.0 0.00 0.00 0.00 56 1011.1
20260509193329 88 287 1.0 5.0 0.00 0.00 0.00 56 1011.4
20260509191349 88 250 1.0 3.0 0.00 0.00 0.00 58 1011.9
20260509190414 87 225 1.0 8.0 0.00 0.00 0.00 63 1012.1
20260509185342 87 240 3.0 7.0 0.00 0.00 0.00 62 1012.0
20260509184417 87 269 4.0 11.0 0.00 0.00 0.00 62 1012.0
20260509183337 85 203 2.0 7.0 0.00 0.00 0.00 65 1012.0
20260509182343 85 248 2.0 7.0 0.00 0.00 0.00 64 1012.1
20260509181403 85 286 1.0 8.0 0.00 0.00 0.00 66 1012.4
20260509180329 85 161 1.0 4.0 0.00 0.00 0.00 65 1012.5
20260509175348 84 194 0.0 6.0 0.00 0.00 0.00 71 1012.7
20260509174422 85 123 1.0 3.0 0.00 0.00 0.00 67 1012.7
20260509173344 83 288 0.0 3.0 0.00 0.00 0.00 73 1012.8
20260509172403 83 227 1.0 4.0 0.00 0.00 0.00 70 1013.0
20260509171341 82 283 0.0 4.0 0.00 0.00 0.00 75 1013.0
20260509170336 82 203 3.0 7.0 0.00 0.00 0.00 71 1012.9
20260509165346 82 260 3.0 7.0 0.00 0.00 0.00 72 1012.9
20260509164419 81 168 1.0 4.0 0.00 0.00 0.00 76 1013.1
20260509163413 80 217 2.0 6.0 0.00 0.00 0.00 79 1013.2
20260509162426 79 271 3.0 7.0 0.00 0.00 0.00 81 1013.2
20260509161424 78 205 0.0 3.0 0.00 0.00 0.00 83 1013.4
20260509155356 77 182 1.0 5.0 0.00 0.00 0.00 84 1013.5
20260509154327 77 115 3.0 8.0 0.00 0.00 0.00 85 1013.4
20260509145345 73 223 2.0 4.0 0.00 0.00 0.00 92 1014.0
20260509144421 73 192 1.0 4.0 0.00 0.00 0.00 93 1014.0
20260509143342 73 155 2.0 3.0 0.00 0.00 0.00 93 1013.8
20260509142411 73 38 0.0 1.0 0.00 0.00 0.00 94 1013.8
20260509141332 73 38 0.0 2.0 0.00 0.00 0.00 94 1013.3
20260509140409 73 66 0.0 1.0 0.00 0.00 0.00 95 1013.0
20260509135325 72 66 0.0 0.0 0.00 0.00 0.00 95 1012.8
20260509134338 72 66 0.0 1.0 0.00 0.00 0.00 95 1012.9
20260509133416 72 66 0.0 1.0 0.00 0.00 0.00 95 1013.0
20260509132332 72 66 0.0 1.0 0.00 0.00 0.00 95 1013.0
20260509131402 72 66 0.0 0.0 0.00 0.00 0.00 95 1013.1
20260509130326 72 66 0.0 1.0 0.00 0.00 0.00 95 1013.2
20260509125358 72 66 1.0 2.0 0.00 0.00 0.00 95 1012.9
20260509124417 72 66 0.0 2.0 0.00 0.00 0.00 95 1013.0
20260509122343 72 66 1.0 3.0 0.00 0.00 0.00 95 1012.8
20260509121358 72 73 0.0 4.0 0.00 0.00 0.00 95 1013.2
20260509120411 72 73 0.0 8.0 0.00 0.00 0.00 95 1013.0
20260509115334 72 39 0.0 1.0 0.00 0.00 0.00 95 1013.2
20260509113351 72 22 0.0 4.0 0.00 0.00 0.00 95 1013.1
20260509112410 72 27 0.0 2.0 0.00 0.00 0.00 95 1013.1
20260509111345 72 44 0.0 0.0 0.00 0.00 0.00 95 1013.1
20260509110416 72 115 0.0 0.0 0.00 0.00 0.00 95 1012.8
20260509105337 72 115 0.0 0.0 0.00 0.00 0.00 95 1012.5
20260509104339 72 115 0.0 0.0 0.00 0.00 0.00 95 1012.5
20260509103415 72 115 0.0 0.0 0.00 0.00 0.00 95 1012.7
20260509100400 72 115 0.0 0.0 0.00 0.00 0.00 95 1012.5
20260509095422 72 115 0.0 0.0 0.00 0.00 0.00 95 1012.2
20260509094344 72 115 0.0 0.0 0.00 0.00 0.00 95 1012.1
20260509093419 72 167 0.0 0.0 0.00 0.00 0.00 94 1011.9
20260509092345 72 167 0.0 0.0 0.00 0.00 0.00 94 1011.8
20260509091414 72 167 0.0 0.0 0.00 0.00 0.00 94 1011.9
20260509090323 72 167 0.0 0.0 0.00 0.00 0.00 94 1011.8
20260509085354 72 167 0.0 0.0 0.00 0.00 0.00 94 1011.7
20260509084415 72 167 0.0 1.0 0.00 0.00 0.00 94 1011.6
20260509082342 72 167 1.0 4.0 0.00 0.00 0.00 94 1012.0
20260509081411 72 175 0.0 2.0 0.00 0.00 0.00 94 1012.1
20260509080415 72 175 1.0 4.0 0.00 0.00 0.00 94 1012.1
20260509075324 72 202 0.0 2.0 0.00 0.00 0.00 94 1011.8
20260509073350 72 202 0.0 1.0 0.00 0.00 0.00 93 1012.0
20260509072402 72 202 0.0 1.0 0.00 0.00 0.00 93 1011.7